Greybull, WY

3:30 PM MDT on May 23, 2017 (GMT -0600)
South Big Horn County

Weather History for KGEY - December, 2013

Change the Weather History Date:

Wednesday, December 25, 2013

  Actual Average Record
Temperature  
Mean Temperature 16 °F 16 °F  
Max Temperature 30 °F 28 °F 42 °F (2003)
Min Temperature 1 °F 5 °F -17 °F (2002)
Degree Days  
Heating Degree Days 49 49  
Month to date heating degree days 1065 1173  
Since 1 July heating degree days 2873 3030  
Cooling Degree Days 0 0  
Month to date cooling degree days 0 0  
Year to date cooling degree days 1005 669  
Moisture  
Dew Point 3 °F    
Average Humidity 71    
Maximum Humidity 88    
Minimum Humidity 53    
Precipitation  
Precipitation 0.00 in 0.00 in 0.30 in (1967)
Month to date precipitation 0.03 0.24  
Year to date precipitation 4.88 7.47  
Sea Level Pressure  
Sea Level Pressure 30.46 in    
Wind  
Wind Speed 2 mph (ESE)    
Max Wind Speed 7 mph    
Max Gust Speed 9 mph    
Visibility 7 miles    
Events Fog    
T = Trace of Precipitation, MM = Missing Value Source: NWS Daily Summary

Daily Weather History Graph

Daily Weather History Graph

Search for Another Location

Airport or City:

Trip Planner

Search our weather history database for the weather conditions in past years. The results will help you decide how hot, cold, wet, or windy it might be!

Date:

Astronomy

Dec. 25, 2013 Rise Set
Actual Time 7:47 AM MST 4:37 PM MST
Civil Twilight 7:14 AM MST 5:11 PM MST
Nautical Twilight 6:37 AM MST 5:48 PM MST
Astronomical Twilight 6:01 AM MST 6:23 PM MST
Moon 12:05 AM MST (12/25) 11:55 AM MST (12/25)
Length of Visible Light 9h 57m
Length of Day
8h 50m
Waning Gibbous, 48% of the Moon is Illuminated
Dec 25
Waning Gibbous
Jan 1
New
Jan 7
First Quarter
Jan 15
Full
Jan 23
Last Quarter

Hourly Weather History & Observations

Time (MST) Temp. Windchill Dew Point Humidity Pressure Visibility Wind Dir Wind Speed Gust Speed Precip Events Conditions
12:53 AM 10.0 °F - 3.9 °F 76% 30.48 in 10.0 mi Calm Calm - N/A   Clear
1:53 AM 10.9 °F 2.9 °F 6.1 °F 81% 30.48 in 10.0 mi ESE 4.6 mph - N/A   Clear
2:53 AM 10.0 °F 1.8 °F 3.9 °F 76% 30.51 in 10.0 mi SE 4.6 mph - N/A   Clear
3:53 AM 7.0 °F 0.1 °F 3.0 °F 84% 30.54 in 10.0 mi WNW 3.5 mph - N/A   Clear
4:53 AM 3.9 °F -3.4 °F -0.9 °F 80% 30.55 in 10.0 mi NNW 3.5 mph - N/A   Clear
5:41 AM 3.9 °F -5.3 °F -2.0 °F 76% 30.39 in 10.0 mi NNW 4.6 mph - N/A   Scattered Clouds
5:53 AM 5.0 °F - -0.0 °F 80% 30.57 in 10.0 mi Calm Calm - N/A   Partly Cloudy
6:06 AM 3.0 °F - -0.9 °F 84% 30.39 in 4.0 mi Calm Calm - N/A   Mostly Cloudy
6:32 AM 3.0 °F - -2.0 °F 80% 30.38 in 1.5 mi Calm Calm - N/A   Haze
6:35 AM 1.9 °F -5.6 °F -2.0 °F 83% 30.38 in 0.8 mi NNE 3.5 mph - N/A   Mist
6:53 AM 1.9 °F - -2.0 °F 83% 30.57 in 1.0 mi Calm Calm - N/A   Mist
6:57 AM 1.9 °F -5.6 °F -2.9 °F 80% 30.38 in 2.0 mi SW 3.5 mph - N/A   Haze
7:17 AM 3.0 °F -4.4 °F -2.9 °F 76% 30.38 in 10.0 mi WSW 3.5 mph - N/A   Mostly Cloudy
7:25 AM 3.0 °F - -2.0 °F 80% 30.38 in 10.0 mi Calm Calm - N/A   Scattered Clouds
7:46 AM 1.9 °F -7.6 °F -4.0 °F 76% 30.38 in 1.0 mi NNE 4.6 mph - N/A   Haze
7:53 AM 1.9 °F -5.6 °F -2.9 °F 80% 30.58 in 0.2 mi North 3.5 mph - N/A   Haze
8:15 AM 1.0 °F -8.7 °F -4.0 °F 79% 30.39 in 2.0 mi NW 4.6 mph - N/A   Haze
8:22 AM 1.0 °F - -2.9 °F 83% 30.39 in 3.0 mi Calm Calm - N/A   Mostly Cloudy
8:24 AM 1.0 °F -6.7 °F -2.9 °F 83% 30.39 in 1.0 mi ENE 3.5 mph - N/A   Mist
8:31 AM 1.0 °F -6.7 °F -4.0 °F 79% 30.39 in 0.2 mi SSE 3.5 mph - N/A   Haze
8:48 AM 1.4 °F -6.2 °F -0.4 °F 92% 30.39 in 0.2 mi South 3.5 mph - N/A Fog Light Freezing Fog
8:53 AM 3.9 °F -3.4 °F -0.0 °F 84% 30.60 in 0.2 mi South 3.5 mph - N/A Fog Light Freezing Fog
8:57 AM 3.9 °F -5.3 °F -0.9 °F 80% 30.39 in 2.0 mi SW 4.6 mph - N/A   Haze
9:04 AM 6.1 °F - 1.0 °F 80% 30.40 in 10.0 mi Calm Calm - N/A   Unknown
9:53 AM 9.0 °F - 1.9 °F 73% 30.60 in 10.0 mi Calm Calm - N/A   Clear
10:53 AM 12.9 °F - 6.1 °F 74% 30.60 in 10.0 mi Calm Calm - N/A   Clear
11:53 AM 19.0 °F - 10.9 °F 71% 30.54 in 10.0 mi Calm Calm - N/A   Clear
12:53 PM 21.9 °F - 12.0 °F 66% 30.51 in 10.0 mi Calm Calm - N/A   Clear
1:53 PM 26.1 °F 21.9 °F 12.9 °F 58% 30.47 in 10.0 mi ENE 3.5 mph - N/A   Clear
2:53 PM 28.9 °F 25.2 °F 15.1 °F 56% 30.44 in 10.0 mi ESE 3.5 mph - N/A   Clear
3:53 PM 30.0 °F 26.5 °F 16.0 °F 56% 30.43 in 10.0 mi ESE 3.5 mph - N/A   Clear
4:53 PM 26.1 °F - 15.1 °F 63% 30.45 in 10.0 mi Calm Calm - N/A   Clear
5:53 PM 23.0 °F 17.0 °F 14.0 °F 68% 30.44 in 10.0 mi ESE 4.6 mph - N/A   Clear
6:53 PM 17.1 °F 10.0 °F 9.0 °F 71% 30.47 in 10.0 mi North 4.6 mph - N/A   Clear
7:53 PM 14.0 °F - 7.0 °F 74% 30.46 in 10.0 mi Calm Calm - N/A   Clear
8:53 PM 12.0 °F 4.1 °F 6.1 °F 77% 30.46 in 10.0 mi SE 4.6 mph - N/A   Partly Cloudy
9:53 PM 12.0 °F - 6.1 °F 77% 30.45 in 10.0 mi Calm Calm - N/A   Mostly Cloudy
10:53 PM 15.1 °F 7.7 °F 9.0 °F 77% 30.43 in 10.0 mi SE 4.6 mph - N/A   Mostly Cloudy
11:53 PM 15.1 °F - 9.0 °F 77% 30.42 in 10.0 mi Calm Calm - N/A   Mostly Cloudy